CZ-2D DEB, 38176

Orbit data source: Space-Track

CZ-2D DEB, 38176 is space debris in SSO originally from a launch on Sun, 20 Nov 2011 UTC launched from the Jiuquan Satellite Launch Center, China (JSC). Debris objects in space refer to the collection of defunct objects orbiting the Earth. Examples of debris include non-operational satellites, rocket bodies, and fragments generated from explosions, collisions, or faulty payload assembly.

Loading next visibility...
Identifier
38176, 2011-068D
Orbit
SSO
Country
Flag of CNCN / PRC
Related business
Manufacturer
Unknown
Mission
Spacecraft
Bus & Motor
Unknown
Mass
Unknown
Launch date (UTC)
2011-11-20 (14 years ago)
Launch vehicle
Unknown
Launch site
Jiuquan Satellite Launch Center, China (JSC)
Object type
Payload
Rocket body
Debris
Shape & HBR
Unknown shape, 0.1 m
Radar Cross Section
Small (<0.1 m²)

Expand to show TLE details & history
Last TLE update: 17 hours ago

TLE from 17 hours ago
0 CZ-2D DEB
1 38176U 11068D   26094.94503691  .00004290  00000-0  10528-2 0  9992
2 38176  98.2898  99.1556 0104564  24.5020 336.1092 14.49607525751122
Epoch: 2026-04-04T22:40Z
TLE epoch observation values (Epoch: 2026-04-04T22:40:51.189Z)
Latitude
-0.00002°
Longitude
-74.31522°
Altitude
662.086 km
Speed
7.562 km/s
True Right ascension
06h 36m 37s
True Declination
0° 00' 00"
Sunlit
Object was in daylight at epoch
Visualization orbit readout
Latitude
Unknown
Longitude
Unknown
Altitude
Unknown
Speed
Unknown
Apparent Right ascension
Unknown
Apparent Declination
Unknown
Sunlit
N/A
Visualization observer readout
Local Sidereal Time
21:55:50
Azimuth
Unknown
Elevation
Unknown
Doppler factor
Unknown
Orbital elements
Apogee altitude
798.293 km
Perigee altitude
649.766 km
Semi-major axis
7,102.166 km
Eccentricity
0.01046
Inclination
98.2898°
RAAN
99.1556°
Arg. of periapsis
24.502°
True anomaly
335.61807°
Mean anomaly
336.1092°
Eccentric anomaly
335.86422°
Mean motion
3.62624 °/min
Orbital period
99.28 mins
BSTAR
0.0010528
Loading maneuver chart data...
Computing Atmospheric mass density...
Loading historical data...
Loading historical data...
Loading historical data...
Loading historical data...
Loading historical data...
Loading historical data...
Loading historical data...

Documentation

Showing up to 5 results
|